Location: Unspecified
(0.0000°N, 0.0000°E)
Time: 13:36:54
(UTC+00:00)

Amateur Radio Satellites - All Passes

Search period start: 18 April 2014 13:06
Search period end: 19 April 2014 13:06
Location: Unspecified, 0.0000°N, 0.0000°E

Satellite Date Start Highest point End Downlink Frequencies (MHz)
Time Altitude Azimuth
AO-27 18 Apr 13:12:19 13:16:56 32° 77° (ENE) 13:21:30 436.795 MHz FM
ITAMSAT 1 18 Apr 13:23:06 13:28:01 42° 77° (ENE) 13:32:53 435.822 SSB
Oscar 19 18 Apr 13:30:58 13:36:03 66° 258° (WSW) 13:41:07 437.125 CW, 437.150 USB
OPAL 18 Apr 13:32:37 13:36:28 21° 104° (ESE) 13:40:17 ?
Oscar 16 18 Apr 13:39:09 13:44:04 47° 257° (WSW) 13:48:58 437.025 USB, Beacon 2401.1428
SO-50 18 Apr 13:40:19 13:44:51 78° 112° (ESE) 13:49:19 436.795 FM
AO-Echo 18 Apr 13:43:54 13:49:09 60° 78° (ENE) 13:54:21 ?
TMSAT-1 18 Apr 13:48:53 13:50:19 11° 77° (ENE) 13:51:46 436.925 FM
KITSAT 1 18 Apr 14:06:23 14:13:32 36° 250° (WSW) 14:20:44 435.175 FM
Uribyol 2 18 Apr 14:11:49 14:16:45 44° 257° (WSW) 14:21:39 436.500 FM
Gurwin Techsat 1B 18 Apr 14:35:36 14:40:55 73° 78° (ENE) 14:46:11 435.225 FM
AO-27 18 Apr 14:53:08 14:56:09 16° 257° (WSW) 14:59:10 436.795 MHz FM
JAS-1B 18 Apr 14:59:32 15:08:38 50° 78° (ENE) 15:16:32 435.800 - 435.900 CW/SSB
PANSAT 18 Apr 15:03:33 15:06:32 21° 29° (NNE) 15:09:31 not established
ITAMSAT 1 18 Apr 15:05:37 15:07:12 11° 257° (WSW) 15:08:47 435.822 SSB
OPAL 18 Apr 15:10:55 15:15:04 25° 284° (WNW) 15:19:13 ?
TMSAT-1 18 Apr 15:24:56 15:29:58 44° 257° (WSW) 15:34:58 436.925 FM
Uosat F 18 Apr 15:40:02 15:45:06 81° 77° (ENE) 15:50:07 435.120 FM
RS-15 18 Apr 15:47:13 15:56:07 27° 69° (ENE) 16:05:15 29.354 - 29.394 USB, Beacon 29.352 USB
AO-7 18 Apr 15:53:34 16:01:45 63° 74° (ENE) 16:09:53 29.400 - 29.500 MHz
UOSAT-12 18 Apr 16:11:05 16:15:19 47° 292° (WNW) 16:19:38 437.025 FM, 437.400 FM
PANSAT 18 Apr 16:42:57 16:46:42 51° 210° (SSW) 16:50:27 not established
JAS-1B 18 Apr 16:51:07 16:58:29 26° 253° (WSW) 17:05:16 435.800 - 435.900 CW/SSB
Hamsat 18 Apr 17:40:22 17:44:26 52° 79° (ENE) 17:48:29 145.90 MHz
STRAND 1 18 Apr 17:46:28 17:50:56 31° 103° (ESE) 17:55:26 ?
AO-7 18 Apr 17:49:30 17:54:06 16° 253° (WSW) 17:58:43 29.400 - 29.500 MHz
RS-15 18 Apr 17:57:13 18:08:00 53° 249° (WSW) 18:19:23 29.354 - 29.394 USB, Beacon 29.352 USB
JAS-2 18 Apr 18:04:20 18:10:16 32° 79° (E) 18:15:35 435.800 - 435.900 CW/SSB, 435.910 FM
SO-67 18 Apr 18:20:36 18:23:09 19° 79° (E) 18:25:41 435.3500 MHz FM
STRAND 1 18 Apr 19:27:01 19:29:51 15° 283° (WNW) 19:32:43 ?
MaSat-1 18 Apr 19:31:53 19:35:58 40° 109° (ESE) 19:39:21 437.345 MHz
HO-68 18 Apr 19:44:44 19:49:32 19° 75° (ENE) 19:54:17 435.675 MHz FM
JAS-2 18 Apr 19:49:38 19:54:57 24° 254° (WSW) 19:59:50 435.800 - 435.900 CW/SSB, 435.910 FM
Saudisat 1A 18 Apr 20:11:02 20:12:45 12° 67° (ENE) 20:14:28 436.775 MHz
Oscar 11 18 Apr 20:48:42 20:52:05 23° 78° (ENE) 20:55:26 145.825 FM, Beacon 2401.500 USB
HO-68 18 Apr 21:30:10 21:36:53 45° 255° (WSW) 21:43:36 435.675 MHz FM
Saudisat 1A 18 Apr 21:48:23 21:52:06 28° 248° (WSW) 21:55:49 436.775 MHz
Sapphire 18 Apr 21:58:14 22:02:02 19° 110° (ESE) 22:05:48 437.095 MHz 1200 baud AX-25 AFSK
FUNcube-1 18 Apr 22:10:50 22:15:15 81° 78° (ENE) 22:19:30 145.950 - 145.970 MHz USB
Oscar 11 18 Apr 22:25:41 22:28:00 14° 258° (WSW) 22:30:20 145.825 FM, Beacon 2401.500 USB
PCSat 18 Apr 22:41:37 22:46:59 70° 109° (ESE) 22:52:20 145.825 MHz
Sapphire 18 Apr 23:40:39 23:45:10 28° 289° (WNW) 23:49:42 437.095 MHz 1200 baud AX-25 AFSK
ISS 19 Apr 00:13:25 00:16:44 70° 55° (NE) 00:20:03 145.800 FM
KITSAT 1 19 Apr 00:19:12 00:26:31 37° 110° (ESE) 00:33:47 435.175 FM
Oscar 19 19 Apr 00:27:07 00:30:46 20° 103° (ESE) 00:34:26 437.125 CW, 437.150 USB
Oscar 16 19 Apr 00:34:33 00:38:52 27° 103° (ESE) 00:43:11 437.025 USB, Beacon 2401.1428
Uribyol 2 19 Apr 01:07:56 01:12:24 30° 103° (ESE) 01:16:53 436.500 FM
Gurwin Techsat 1B 19 Apr 01:37:19 01:39:44 13° 103° (ESE) 01:42:09 435.225 FM
AO-27 19 Apr 01:46:56 01:52:06 87° 103° (ESE) 01:57:19 436.795 MHz FM
SO-50 19 Apr 01:53:29 01:58:07 55° 248° (WSW) 02:02:50 436.795 FM
ITAMSAT 1 19 Apr 01:57:53 02:03:02 71° 283° (WNW) 02:08:13 435.822 SSB
OPAL 19 Apr 02:03:24 02:08:11 49° 76° (ENE) 02:12:58 ?
Oscar 19 19 Apr 02:05:38 02:09:50 26° 283° (WNW) 02:14:04 437.125 CW, 437.150 USB
AO-Echo 19 Apr 02:13:44 02:18:18 57° 282° (WNW) 02:22:56 ?
Oscar 16 19 Apr 02:14:25 02:17:56 19° 283° (WNW) 02:21:29 437.025 USB, Beacon 2401.1428
KITSAT 1 19 Apr 02:14:58 02:21:34 28° 290° (WNW) 02:28:12 435.175 FM
TMSAT-1 19 Apr 02:23:43 02:28:25 33° 103° (ESE) 02:33:07 436.925 FM
AO-7 19 Apr 02:34:20 02:35:45 11° 108° (ESE) 02:37:10 29.400 - 29.500 MHz
Uosat F 19 Apr 02:35:25 02:36:18 10° 103° (ESE) 02:37:11 435.120 FM
UOSAT-12 19 Apr 02:43:21 02:45:53 15° 67° (ENE) 02:48:24 437.025 FM, 437.400 FM
Uribyol 2 19 Apr 02:48:22 02:51:36 17° 283° (WNW) 02:54:52 436.500 FM
PANSAT 19 Apr 02:51:14 02:54:21 23° 151° (SSE) 02:57:28 not established
JAS-1B 19 Apr 03:09:22 03:15:08 47° 105° (ESE) 03:21:49 435.800 - 435.900 CW/SSB
Gurwin Techsat 1B 19 Apr 03:14:32 03:19:24 38° 282° (WNW) 03:24:19 435.225 FM
RS-15 19 Apr 03:30:27 03:39:07 23° 113° (ESE) 03:47:25 29.354 - 29.394 USB, Beacon 29.352 USB
TMSAT-1 19 Apr 04:05:02 04:08:04 16° 283° (WNW) 04:11:07 436.925 FM
Uosat F 19 Apr 04:10:07 04:14:47 42° 283° (WNW) 04:19:30 435.120 FM
AO-7 19 Apr 04:19:41 04:28:01 83° 286° (WNW) 04:36:24 29.400 - 29.500 MHz
UOSAT-12 19 Apr 04:21:52 04:25:48 27° 248° (WSW) 04:29:41 437.025 FM, 437.400 FM
PANSAT 19 Apr 04:30:46 04:34:32 48° 330° (NNW) 04:38:17 not established
JAS-1B 19 Apr 05:03:03 05:05:48 13° 280° (W) 05:08:42 435.800 - 435.900 CW/SSB
JAS-2 19 Apr 05:37:15 05:40:55 16° 106° (ESE) 05:44:47 435.800 - 435.900 CW/SSB, 435.910 FM
RS-15 19 Apr 05:39:41 05:51:16 61° 290° (WNW) 06:02:21 29.354 - 29.394 USB, Beacon 29.352 USB
Hamsat 19 Apr 05:47:32 05:51:52 70° 101° (ESE) 05:56:13 145.90 MHz
SO-67 19 Apr 06:07:35 06:08:40 11° 101° (ESE) 06:09:45 435.3500 MHz FM
STRAND 1 19 Apr 06:18:41 06:23:51 82° 77° (ENE) 06:28:58 ?
JAS-2 19 Apr 07:19:41 07:25:25 46° 281° (W) 07:31:55 435.800 - 435.900 CW/SSB, 435.910 FM
MaSat-1 19 Apr 07:31:53 07:35:49 55° 75° (ENE) 07:40:35 437.345 MHz
HO-68 19 Apr 07:37:01 07:41:04 16° 105° (ESE) 07:45:06 435.675 MHz FM
SO-67 19 Apr 07:39:16 07:41:33 17° 281° (W) 07:43:51 435.3500 MHz FM
AO-40 19 Apr 08:01:17 09:24:00 32° 261° (W) 12:34:15 Beacon 2401.320
Saudisat 1A 19 Apr 08:15:52 08:19:05 20° 112° (ESE) 08:22:18 436.775 MHz
Oscar 11 19 Apr 08:57:28 09:01:19 31° 102° (ESE) 09:05:10 145.825 FM, Beacon 2401.500 USB
HO-68 19 Apr 09:21:27 09:28:24 54° 285° (WNW) 09:35:22 435.675 MHz FM
PCSat 19 Apr 09:37:20 09:40:07 14° 70° (ENE) 09:42:55 145.825 MHz
Saudisat 1A 19 Apr 09:55:18 09:58:26 19° 292° (WNW) 10:01:34 436.775 MHz
FUNcube-1 19 Apr 10:21:25 10:25:47 71° 281° (WNW) 10:30:17 145.950 - 145.970 MHz USB
Sapphire 19 Apr 10:33:05 10:38:24 61° 71° (ENE) 10:43:43 437.095 MHz 1200 baud AX-25 AFSK
Oscar 11 19 Apr 10:36:17 10:37:14 11° 282° (WNW) 10:38:12 145.825 FM, Beacon 2401.500 USB
PCSat 19 Apr 11:18:21 11:23:16 37° 251° (WSW) 11:28:13 145.825 MHz
ISS 19 Apr 11:49:27 11:52:38 42° 125° (SE) 11:55:47 145.800 FM
KITSAT 1 19 Apr 12:26:52 12:34:32 48° 70° (ENE) 12:42:10 435.175 FM
SO-50 19 Apr 12:29:12 12:31:26 14° 113° (ESE) 12:33:39 436.795 FM
AO-27 19 Apr 12:45:32 12:48:16 14° 77° (ENE) 12:50:59 436.795 MHz FM
ITAMSAT 1 19 Apr 12:55:27 12:59:03 19° 77° (ENE) 13:02:39 435.822 SSB
